Location: Mount Kobau Star Party
(49.1167°N, 119.7333°W)
Time: 12:35:16
(UTC-07:00)

ARIANE 6 FM1 Upper Stage - Pass Details

Date: 17 April 2026
Orbit: 526 x 601 km, 62.0° (Epoch: 18 May)

Event Time Altitude Azimuth Distance (km) Brightness Sun altitude
Rises 20:52:38 0° 272° (W) 2,712 7.4 -9.5°
Reaches altitude 10° 20:55:21 10° 289° (WNW) 1,807 6.8 -9.9°
Maximum altitude 20:58:21 20° 338° (NNW) 1,294 5.3 -10.3°
Drops below altitude 10° 21:01:20 10° 26° (NNE) 1,787 5.3 -10.8°
Sets 21:04:01 0° 44° (NE) 2,672 6.0 -11.1°
